Regional Weather Roundup
Issued by NWS Albany, NY

Home | Current Version | Previous Version | Text Only | Print | Product List | Glossary On
Versions: 1 2 3 4 5 6 7 8 9 10 11 12 13 14 15 16 17 18 19 20 21 22 23 24 25 26 27 28 29 30 31 32 33 34 35 36 37 38 39 40 41 42 43 44 45 46 47 48 49
405
ASUS41 KALY 071510
RWRALY

NEW YORK STATE HOURLY WEATHER ROUNDUP
NATIONAL WEATHER SERVICE ALBANY NY
1000 AM EST SUN FEB 07 2016

NOTE: "FAIR" INDICATES FEW OR NO CLOUDS BELOW 12,000 FEET WITH NO
SIGNIFICANT WEATHER AND/OR NO OBSTRUCTIONS TO VISIBILITY.

NYZ032-033-038>043-046>054-057>066-NYZ062>081-071600-
EAST


CITY           SKY/WX    TMP DP  RH WIND       PRES   REMARKS
ALBANY         MOSUNNY   37  21  52 S5        30.16R WCI  33
GLENS FALLS    SUNNY     35  22  58 S6        30.14R WCI  30
POUGHKEEPSIE   SUNNY     38  22  52 SW3       30.17R
NEWBURGH       MOSUNNY   36  23  60 W8        30.17R WCI  29
MONTGOMERY     SUNNY     37  23  56 S3        30.14F
WHITE PLAINS   MOSUNNY   36  22  56 CALM      30.14F
ISLIP          MOSUNNY   39  23  52 NW3       30.15F
NEW YORK CITY  MOSUNNY   42  23  46 CALM      30.17F
CENTRAL PARK   SUNNY     39  20  46 CALM      30.18F
$$

NYZ005>009-017-018-044>046-055-056-071600-
CENTRAL


CITY           SKY/WX    TMP DP  RH WIND       PRES   REMARKS
FULTON         SUNNY     38  28  67 S7        30.11F WCI  33
SYRACUSE       MOSUNNY   36  26  67 VRB3      30.12S
ROME           PTSUNNY   31  25  78 SE3       30.15R
ELMIRA         SUNNY     30  24  78 CALM      30.12S
BINGHAMTON     SUNNY     33  19  56 W7        30.08R WCI  27
MONTICELLO     SUNNY     34  21  60 CALM      30.12F
$$

NYZ026>034-041>043-071600-
NORTH


CITY           SKY/WX    TMP DP  RH WIND       PRES   REMARKS
WATERTOWN      PTSUNNY   36  28  73 SW5       30.10S HAZE    WCI  32
FORT DRUM      NOT AVBL
MASSENA        CLOUDY    28  20  71 NE12      30.16R WCI  18
SARANAC LAKE   CLOUDY    30  22  72 CALM      30.04S
PLATTSBURGH    CLOUDY    28  22  78 N14       30.15R WCI  17
$$

NYZ001>004-010>016-019>021-071600-
WEST


CITY           SKY/WX    TMP DP  RH WIND       PRES   REMARKS
NIAGARA FALLS  MOSUNNY   38  25  59 S10       30.04F WCI  31
BUFFALO        MOSUNNY   36  23  59 S9        30.05F WCI  29
DUNKIRK        SUNNY     36  24  62 S13       30.06F WCI  27
JAMESTOWN      SUNNY     30  19  64 S10       30.03S WCI  21
WELLSVILLE     SUNNY     33  20  58 VRB7      30.05F WCI  27
ROCHESTER      MOSUNNY   37  24  59 SW9       30.09S WCI  30
PENN YAN       MOSUNNY   34  22  61 SW8       30.10S WCI  27
$$

             KEY
       WCI = WIND CHILL INDEX
       VSB = VISIBILITY
       HX  = HEAT INDEX
$$




USA.gov is the U.S. government's official web portal to all federal, state and local government web resources and services.